Date String (YYYY-MM-DD hh:mm:ss) UTC,Instrument flags,Ambient pressure (hPa),Sample flow (lpm),Bypass flow (lpm),Sample temperature (°C),Ambient temperature (°C),ASC tube jacket temperature (°C),LED temperature (°C),Box temperature (°C),Sample RH (%),Span deviation,Mass concentration (μg/m³),Mass concentration (μg/m³),Mass concentration (μg/m³)
DateTimeUTC,F1_M11,P_M11,Q1_M11,Q2_M11,T1_M11,T2_M11,T3_M11,T4_M11,T5_M11,U1_M11,ZSPAN_M11,X0_M11,X2_M11,X1_M11
2022-02-21 12:00:00,,0811.7,5.01,0.00,21.9,21.1,00.0,31.1,23.6,07.8,0000.0,0004.65,0000.86,0000.55
2022-02-21 12:01:00,,0811.7,5.00,0.00,21.9,21.1,00.0,31.1,23.5,07.8,0000.0,0004.56,0000.83,0000.54
2022-02-21 12:02:00,,0811.7,4.99,0.00,21.8,21.1,00.0,31.1,23.5,07.9,0000.0,0004.62,0000.92,0000.55
2022-02-21 12:03:00,,0811.8,5.00,0.00,21.8,21.1,00.0,31.1,23.5,07.8,0000.0,0004.85,0001.00,0000.54
2022-02-21 12:04:00,,0811.8,5.01,0.00,21.8,21.1,00.0,31.0,23.5,07.9,0000.0,0004.87,0001.03,0000.55
2022-02-21 12:05:00,,0811.8,5.00,0.00,21.8,21.0,00.0,31.0,23.5,07.9,0000.0,0003.98,0001.04,0000.56
2022-02-21 12:06:00,,0811.7,4.99,0.00,21.8,21.0,00.0,31.0,23.5,07.8,0000.0,0003.85,0001.05,0000.56
2022-02-21 12:07:00,,0811.7,5.01,0.00,21.7,20.9,00.0,31.0,23.4,07.8,0000.0,0003.82,0001.04,0000.55
2022-02-21 12:08:00,,0811.7,4.99,0.00,21.7,20.9,00.0,30.9,23.4,07.8,0000.0,0003.86,0001.06,0000.55
2022-02-21 12:09:00,,0811.7,5.01,0.00,21.7,20.9,00.0,30.9,23.3,07.9,0000.0,0003.91,0001.08,0000.55
2022-02-21 12:10:00,,0811.7,4.99,0.00,21.7,20.9,00.0,30.9,23.3,08.0,0000.0,0003.47,0001.13,0000.55
2022-02-21 12:11:00,,0811.7,4.99,0.00,21.6,20.9,00.0,30.9,23.3,07.8,0000.0,0002.41,0001.13,0000.56
2022-02-21 12:12:00,,0811.7,5.01,0.00,21.6,20.9,00.0,30.9,23.3,07.8,0000.0,0002.37,0001.13,0000.56
2022-02-21 12:13:00,,0811.7,5.00,0.00,21.6,20.9,00.0,30.8,23.3,07.9,0000.0,0002.08,0001.04,0000.55
2022-02-21 12:14:00,,0811.7,4.99,0.00,21.6,20.9,00.0,30.8,23.3,07.9,0000.0,0001.90,0000.97,0000.56
2022-02-21 12:15:00,,0811.7,4.99,0.00,21.6,20.9,00.0,30.8,23.3,07.9,0000.0,0001.84,0000.94,0000.56
2022-02-21 12:16:00,,0811.7,5.00,0.00,21.6,20.8,00.0,30.8,23.3,07.9,0000.0,0001.87,0000.93,0000.55
2022-02-21 12:17:00,,0811.7,5.00,0.00,21.6,20.8,00.0,30.8,23.3,07.9,0000.0,0001.92,0000.92,0000.55
2022-02-21 12:18:00,,0811.7,5.01,0.00,21.5,20.8,00.0,30.7,23.2,07.9,0000.0,0001.92,0000.93,0000.56
2022-02-21 12:19:00,,0811.7,5.01,0.00,21.5,20.7,00.0,30.7,23.2,07.8,0000.0,0001.89,0000.92,0000.56
2022-02-21 12:20:00,,0811.7,5.00,0.00,21.5,20.7,00.0,30.7,23.2,07.9,0000.0,0001.93,0000.94,0000.56
2022-02-21 12:21:00,,0811.7,4.99,0.00,21.5,20.7,00.0,30.7,23.2,08.0,0000.0,0002.03,0000.93,0000.56
2022-02-21 12:22:00,,0811.7,5.00,0.00,21.5,20.7,00.0,30.7,23.1,08.1,0000.0,0002.06,0000.91,0000.55
2022-02-21 12:23:00,,0811.7,5.00,0.00,21.4,20.7,00.0,30.7,23.1,08.0,0000.0,0002.74,0000.92,0000.55
2022-02-21 12:24:00,,0811.6,5.00,0.00,21.5,21.1,00.0,30.7,23.2,07.9,0000.0,0002.96,0000.97,0000.55
2022-02-21 12:25:00,,0811.8,5.01,0.00,21.6,21.8,00.0,30.7,23.5,07.8,0000.0,0002.89,0000.99,0000.55
2022-02-21 12:26:00,,0811.9,5.00,0.00,21.8,22.6,00.0,30.8,23.8,07.8,0000.0,0002.94,0001.01,0000.55
2022-02-21 12:27:00,,0811.9,4.99,0.00,21.9,22.6,00.0,30.8,23.9,07.8,0000.0,0002.83,0000.99,0000.55
2022-02-21 12:28:00,,0811.9,5.00,0.00,21.9,22.3,00.0,30.8,23.9,07.7,0000.0,0002.79,0000.99,0000.55
2022-02-21 12:29:00,,0811.9,5.01,0.00,21.9,22.1,00.0,30.8,23.8,07.7,0000.0,0003.06,0001.00,0000.54
2022-02-21 12:30:00,,0811.9,5.00,0.00,21.9,21.9,00.0,30.8,23.7,07.7,0000.0,0003.06,0000.98,0000.55
2022-02-21 12:31:00,,0811.8,5.00,0.00,21.9,21.8,00.0,30.8,23.7,07.6,0000.0,0003.70,0000.99,0000.55
2022-02-21 12:32:00,,0811.8,5.00,0.00,21.9,21.7,00.0,30.8,23.6,07.6,0000.0,0003.86,0001.02,0000.56
2022-02-21 12:33:00,,0811.7,5.00,0.00,21.9,21.5,00.0,30.8,23.6,07.6,0000.0,0003.78,0001.03,0000.57
2022-02-21 12:34:00,,0811.7,5.00,0.00,21.8,21.4,00.0,30.8,23.6,07.7,0000.0,0004.48,0001.02,0000.57
2022-02-21 12:35:00,,0811.9,4.99,0.00,21.8,21.4,00.0,30.8,23.6,07.7,0000.0,0004.29,0000.97,0000.57
2022-02-21 12:36:00,,0811.9,5.01,0.00,21.8,21.3,00.0,30.8,23.6,07.6,0000.0,0004.25,0000.95,0000.57
2022-02-21 12:37:00,,0811.9,5.00,0.00,21.8,21.3,00.0,30.8,23.5,07.7,0000.0,0004.13,0000.92,0000.58
2022-02-21 12:38:00,,0811.9,4.99,0.00,21.8,21.3,00.0,30.8,23.6,07.6,0000.0,0003.98,0000.91,0000.57
2022-02-21 12:39:00,,0811.9,5.01,0.00,21.8,21.2,00.0,30.8,23.6,07.7,0000.0,0004.02,0000.93,0000.57
2022-02-21 12:40:00,,0811.9,5.00,0.00,21.8,21.2,00.0,30.8,23.5,07.7,0000.0,0003.84,0000.90,0000.57
2022-02-21 12:41:00,,0811.9,4.99,0.00,21.8,21.2,00.0,30.8,23.5,07.7,0000.0,0003.69,0000.89,0000.57
2022-02-21 12:42:00,,0811.9,5.00,0.00,21.8,21.2,00.0,30.8,23.5,07.7,0000.0,0003.38,0000.87,0000.57
2022-02-21 12:43:00,,0811.9,5.01,0.00,21.8,21.1,00.0,30.8,23.5,07.7,0000.0,0002.92,0000.84,0000.56
2022-02-21 12:44:00,,0811.9,4.99,0.00,21.7,21.1,00.0,30.8,23.5,07.7,0000.0,0002.87,0000.84,0000.56
2022-02-21 12:45:00,,0811.9,4.99,0.00,21.7,21.1,00.0,30.8,23.4,07.8,0000.0,0002.40,0000.83,0000.55
2022-02-21 12:46:00,,0811.9,5.02,0.00,21.7,21.0,00.0,30.8,23.4,07.7,0000.0,0001.46,0000.82,0000.54
2022-02-21 12:47:00,,0811.9,4.99,0.00,21.7,21.0,00.0,30.8,23.4,07.6,0000.0,0001.59,0000.85,0000.54
2022-02-21 12:48:00,,0811.9,5.00,0.00,21.7,21.0,00.0,30.8,23.4,07.6,0000.0,0001.80,0000.88,0000.54
2022-02-21 12:49:00,,0811.9,5.01,0.00,21.7,21.0,00.0,30.8,23.3,07.6,0000.0,0001.89,0000.91,0000.54
2022-02-21 12:50:00,,0811.9,5.02,0.00,21.6,20.9,00.0,30.8,23.4,07.7,0000.0,0001.93,0000.92,0000.53
2022-02-21 12:51:00,,0811.9,4.99,0.00,21.6,20.9,00.0,30.8,23.3,07.7,0000.0,0002.05,0000.94,0000.53
2022-02-21 12:52:00,,0812.0,4.99,0.00,21.6,20.9,00.0,30.7,23.3,07.7,0000.0,0002.55,0000.95,0000.53
2022-02-21 12:53:00,,0811.9,5.00,0.00,21.6,20.9,00.0,30.7,23.3,07.7,0000.0,0002.59,0000.94,0000.52
2022-02-21 12:54:00,,0812.0,5.00,0.00,21.6,20.9,00.0,30.7,23.3,07.7,0000.0,0002.46,0000.92,0000.52
2022-02-21 12:55:00,,0812.0,5.00,0.00,21.6,21.0,00.0,30.7,23.3,07.7,0000.0,0002.35,0000.89,0000.51
2022-02-21 12:56:00,,0812.0,5.00,0.00,21.6,21.0,00.0,30.7,23.3,07.7,0000.0,0002.49,0000.89,0000.51
2022-02-21 12:57:00,,0811.9,5.01,0.00,21.6,21.0,00.0,30.7,23.4,07.6,0000.0,0002.63,0000.89,0000.51
2022-02-21 12:58:00,,0811.9,5.00,0.00,21.6,21.0,00.0,30.7,23.4,07.5,0000.0,0002.66,0000.90,0000.52
2022-02-21 12:59:00,,0811.9,5.00,0.00,21.6,21.0,00.0,30.7,23.4,07.4,0000.0,0002.49,0000.86,0000.52
